Dewpoint
54 63 72 72 73 74 74 73 73 73 74 74 74 74 74 74 74 74 73 73 72 72 70 70 71 71 71 71 71 71 72 73 72 72 71 70 70 69 69 70 70 65 71
57 63 71 72 73 74 74 73 73 73 74 74 74 74 74 74 74 73 73 73 72 71 70 70 70 70 70 71 71 71 71 72 72 72 72 70 69 69 69 70 70 69 71
59 63 68 72 73 73 74 74 73 74 74 74 74 74 74 74 74 73 73 72 72 71 70 69 68 69 69 69 70 70 70 71 71 72 72 63 65 68 68 70 71 70 70
61 63 63 71 72 73 73 74 74 74 74 74 74 74 74 74 73 73 73 72 72 71 70 69 68 68 68 68 69 69 68 69 69 70 68 59 61 69 68 69 69 69 70
62 64 63 71 72 72 73 73 73 73 73 73 73 74 74 73 73 73 73 72 72 71 70 69 69 68 68 69 69 68 68 67 68 66 60 60 62 68 69 69 69 69 69
61 64 69 70 71 72 73 73 73 73 72 72 72 73 73 73 73 73 72 73 73 72 70 69 69 69 69 69 69 68 67 68 67 61 61 63 67 70 70 69 70 70 70
60 63 68 70 71 71 72 73 72 72 72 72 72 72 72 73 73 72 72 72 73 72 71 70 70 70 70 69 69 68 68 69 64 58 59 62 68 71 69 69 70 70 69
58 63 69 70 71 71 71 71 71 71 71 71 72 72 73 73 72 72 72 72 72 72 72 71 70 69 69 68 67 68 68 68 63 58 59 61 70 70 69 69 70 70 69
61 64 69 68 69 70 70 70 70 70 70 71 71 72 72 71 71 72 72 72 71 71 70 69 68 67 67 67 66 66 66 67 65 57 59 65 68 67 70 70 69 69 69
64 67 69 69 68 69 70 69 69 70 70 70 71 71 70 70 71 71 71 70 70 70 68 68 67 68 67 67 66 66 66 67 62 55 64 66 70 67 68 69 68 68 68
64 67 69 69 68 69 68 69 70 70 70 70 70 70 69 68 69 70 68 69 69 67 67 67 66 66 65 64 64 64 65 61 55 56 64 68 70 69 69 69 69 69 68
61 65 68 69 68 68 65 69 69 68 69 69 69 70 67 67 66 65 67 67 67 65 65 64 63 64 64 60 59 61 59 58 56 62 65 68 69 69 69 68 68 67 67
57 60 64 68 70 68 65 67 66 67 67 68 69 69 68 66 66 65 66 65 65 63 60 59 58 58 58 56 55 56 58 58 57 61 63 66 68 68 68 68 67 66 66
53 57 61 64 66 68 62 64 65 66 67 67 68 71 68 65 67 65 64 64 65 62 62 61 59 59 59 57 57 57 57 56 56 61 63 65 67 67 67 66 66 65 64
53 56 61 64 65 66 67 66 66 68 69 69 70 70 68 64 66 64 66 65 63 62 61 60 59 58 57 55 55 56 56 57 57 59 63 63 65 66 65 64 63 62 61
54 56 63 63 66 65 66 69 68 69 69 69 69 69 69 64 67 64 66 63 62 61 60 59 57 55 52 52 52 53 54 54 56 60 61 60 60 62 62 61 61 60 59
51 56 63 66 66 66 67 67 66 67 68 67 68 70 69 66 68 66 63 62 60 59 59 57 55 52 49 48 48 51 52 54 55 58 59 57 57 58 58 58 57 56 55
50 56 62 63 66 67 67 66 65 65 66 65 67 67 69 68 67 66 63 61 59 57 55 54 52 49 47 45 50 50 52 53 54 57 58 57 55 53 54 55 54 53 53
48 55 60 66 66 67 67 65 66 67 66 66 68 67 68 67 66 65 62 63 59 55 54 51 48 48 46 46 46 49 51 51 54 52 55 54 54 53 50 51 51 51 51
48 56 60 66 66 66 65 66 65 65 66 66 66 66 67 66 65 65 65 64 61 54 52 50 51 46 46 50 45 48 51 51 51 52 52 50 51 51 48 47 46 46 49
54 57 61 65 68 66 66 66 66 64 65 64 63 64 64 64 63 63 63 62 61 56 54 53 48 47 46 51 48 50 50 51 51 50 51 49 48 47 48 46 43 42 44
56 60 63 65 67 67 67 66 64 64 63 61 57 56 56 57 57 58 59 59 58 54 54 52 52 47 48 50 48 47 45 47 48 50 52 48 47 45 44 43 43 43 42
59 62 66 67 67 66 65 63 59 57 56 55 55 54 53 55 54 53 52 55 58 53 51 53 54 51 49 51 52 49 45 43 46 48 50 50 47 44 43 43 42 41 42
58 64 67 67 66 65 63 58 56 57 55 55 54 53 51 50 48 49 49 48 48 50 49 50 50 50 51 49 50 49 50 48 45 43 47 48 47 43 45 42 41 40 41
59 63 67 66 64 62 58 57 57 54 53 52 50 50 49 48 47 47 48 47 47 47 48 49 48 49 50 47 47 47 46 48 49 43 41 43 44 44 43 42 41 39 39
56 57 57 56 56 57 56 55 52 50 49 48 47 47 47 46 46 45 45 45 45 46 45 44 45 45 47 45 43 44 46 44 44 44 43 43 43 45 44 42 41 39 38
Lifted_Index
-2 -3 -4 -5 -5 -6 -6 -6 -6 -6 -6 -7 -7 -7 -7 -7 -7 -7 -7 -7 -6 -6 -5 -5 -5 -5 -5 -5 -5 -6 -6 -6 -6 -5 -5 -4 -4 -4 -4 -4 -4 -4 -5
-2 -3 -4 -5 -5 -6 -6 -6 -6 -6 -7 -7 -7 -7 -7 -7 -7 -7 -7 -7 -6 -6 -5 -5 -5 -5 -5 -5 -5 -5 -5 -5 -6 -5 -5 -4 -4 -4 -4 -4 -4 -4 -5
-3 -3 -3 -4 -5 -6 -6 -6 -6 -7 -7 -7 -7 -7 -7 -7 -7 -7 -7 -6 -6 -6 -5 -4 -4 -4 -4 -4 -4 -4 -4 -5 -5 -5 -5 -4 -3 -3 -4 -4 -4 -4 -4
-4 -3 -3 -4 -5 -6 -6 -6 -7 -7 -7 -7 -7 -7 -7 -7 -7 -7 -7 -6 -6 -6 -5 -5 -4 -4 -3 -3 -3 -3 -3 -3 -4 -4 -4 -3 -3 -3 -4 -4 -4 -4 -4
-4 -4 -4 -4 -5 -5 -6 -6 -7 -7 -7 -7 -7 -7 -7 -7 -7 -7 -7 -6 -6 -6 -5 -5 -4 -4 -3 -3 -3 -2 -2 -2 -3 -4 -3 -3 -3 -4 -4 -4 -4 -4 -4
-3 -4 -4 -4 -5 -5 -6 -6 -7 -6 -6 -6 -6 -6 -7 -7 -7 -7 -6 -7 -6 -6 -5 -5 -5 -4 -4 -3 -3 -3 -2 -2 -3 -3 -3 -3 -4 -4 -4 -4 -3 -3 -3
-3 -3 -4 -4 -5 -5 -6 -6 -6 -6 -6 -6 -6 -6 -6 -7 -7 -6 -6 -7 -7 -6 -6 -5 -5 -4 -4 -4 -3 -3 -3 -3 -3 -3 -3 -3 -4 -4 -4 -4 -3 -3 -3
-2 -3 -4 -4 -4 -5 -5 -5 -5 -5 -5 -6 -6 -6 -6 -6 -6 -6 -6 -6 -6 -6 -5 -5 -4 -4 -3 -3 -3 -3 -3 -3 -3 -3 -3 -3 -4 -4 -4 -4 -3 -3 -3
-3 -3 -4 -4 -4 -5 -5 -5 -5 -5 -5 -5 -6 -6 -6 -6 -6 -6 -6 -6 -5 -5 -4 -4 -3 -2 -2 -2 -2 -2 -2 -3 -3 -3 -3 -3 -4 -4 -4 -4 -3 -3 -3
-4 -4 -4 -4 -4 -4 -5 -4 -4 -5 -5 -5 -6 -6 -6 -6 -6 -6 -5 -5 -4 -4 -3 -2 -2 -2 -2 -1 -1 -1 -2 -2 -2 -2 -3 -4 -4 -4 -4 -4 -3 -3 -3
-4 -5 -5 -5 -4 -4 -5 -5 -4 -5 -5 -5 -5 -6 -6 -5 -5 -5 -5 -4 -3 -3 -2 -2 -2 -1 -1 -1 -1 -1 -1 -1 -1 -1 -2 -3 -4 -4 -4 -3 -3 -3 -3
-3 -4 -5 -5 -5 -5 -5 -5 -5 -5 -5 -5 -5 -5 -5 -5 -5 -5 -4 -4 -3 -2 -2 -2 -2 -1 -1 -0 0 0 -0 -0 -0 -1 -2 -2 -3 -3 -3 -2 -2 -2 -2
-2 -3 -4 -5 -5 -5 -5 -5 -5 -5 -5 -5 -6 -5 -5 -5 -5 -4 -4 -3 -3 -2 -2 -2 -1 -1 -0 0 1 1 1 0 0 -0 -1 -1 -2 -2 -2 -2 -1 -1 -1
-1 -2 -3 -4 -5 -5 -5 -5 -5 -5 -6 -6 -6 -6 -5 -5 -5 -5 -4 -3 -3 -2 -2 -2 -1 -0 0 1 2 2 1 1 1 0 0 -1 -1 -1 -1 -0 -0 -0 -0
-1 -1 -2 -3 -4 -4 -5 -5 -5 -6 -6 -6 -6 -6 -5 -5 -5 -4 -4 -4 -3 -2 -2 -1 -0 0 1 2 3 2 2 2 1 1 1 0 -0 -0 0 1 2 2 2
-1 -1 -2 -3 -3 -4 -5 -5 -5 -5 -6 -6 -6 -6 -5 -5 -5 -4 -4 -3 -2 -2 -1 0 1 2 3 4 4 4 3 3 2 2 2 1 1 1 2 3 4 4 5
-0 -1 -2 -3 -3 -4 -4 -5 -5 -5 -5 -5 -6 -6 -5 -5 -5 -4 -4 -3 -2 -0 1 2 3 4 5 6 6 5 4 3 3 3 3 3 2 3 3 4 6 7 7
0 -1 -2 -3 -3 -4 -4 -4 -4 -5 -5 -5 -5 -6 -5 -5 -4 -4 -3 -2 -1 1 2 3 4 5 6 7 6 5 5 4 4 4 4 4 4 4 5 6 7 8 9
1 -0 -2 -3 -3 -4 -4 -4 -4 -4 -5 -5 -5 -5 -5 -5 -4 -3 -2 -1 -0 1 3 4 5 6 7 6 6 5 5 5 5 5 5 5 6 6 7 8 9 10 11
0 -1 -2 -3 -3 -3 -4 -4 -4 -4 -4 -4 -4 -4 -4 -4 -4 -3 -2 -1 0 1 3 4 6 7 7 6 6 5 5 5 5 5 6 6 7 8 9 10 11 12 13
-0 -1 -3 -3 -3 -3 -3 -3 -3 -3 -3 -3 -3 -3 -3 -3 -3 -2 -2 -1 0 1 3 4 5 7 7 6 6 6 5 5 6 6 6 7 8 9 10 11 12 13 13
-1 -2 -3 -3 -3 -3 -3 -3 -2 -2 -2 -2 -2 -2 -3 -3 -3 -2 -2 -0 1 2 2 3 5 6 7 6 6 6 6 6 6 7 7 8 9 10 10 11 12 13 13
-2 -2 -3 -4 -3 -3 -3 -3 -2 -2 -2 -2 -2 -2 -3 -3 -3 -2 -1 1 3 3 3 4 6 7 7 6 6 6 6 6 7 7 8 8 9 10 10 11 12 12 13
-1 -2 -3 -3 -3 -3 -3 -3 -3 -2 -2 -2 -2 -3 -3 -3 -2 -1 0 2 4 4 5 6 7 8 8 7 7 7 7 7 7 8 8 9 9 9 10 10 11 12 13
1 -1 -3 -3 -3 -3 -3 -3 -3 -3 -3 -3 -3 -3 -3 -2 -1 1 2 4 5 6 7 8 10 10 9 9 8 8 8 8 8 8 9 9 10 9 9 10 11 12 12
2 0 -2 -3 -3 -3 -3 -3 -3 -3 -3 -3 -3 -2 -2 -1 0 3 5 6 7 9 9 11 12 11 11 10 9 9 9 9 9 9 9 10 9 9 9 10 11 12 12